K3RTA-2 Weather Reports


Display with metric or nautical units.
time (UTC)temp
F
wind
direction
speed
MPH
gust
MPH
rain 1hr
in
rain 24hr
in
rain mn
in
humidity
%
barometer
mb
20260505053005 61 225 1.0 3.0 0.00 0.00 0.00 82 1012.1
20260505052504 61 224 1.0 3.0 0.00 0.00 0.00 82 1012.2
20260505052004 61 245 0.0 3.0 0.00 0.00 0.00 82 1012.2
20260505051504 61 231 0.0 5.0 0.00 0.00 0.00 82 1012.3
20260505051004 61 213 2.0 5.0 0.00 0.00 0.00 82 1012.3
20260505050504 61 238 1.0 3.0 0.00 0.00 0.00 82 1012.3
20260505041505 62 212 2.0 12.0 0.00 0.00 0.00 80 1012.4
20260505041006 62 233 2.0 12.0 0.00 0.00 0.00 80 1012.5
20260505040504 62 213 1.0 6.0 0.00 0.00 0.00 80 1012.5
20260505040004 62 239 2.0 6.0 0.00 0.00 0.00 80 1012.4
20260505035503 62 222 1.0 8.0 0.00 0.00 0.00 80 1012.4
20260505034004 62 224 2.0 8.0 0.00 0.00 0.00 81 1012.3
20260505033506 61 243 2.0 8.0 0.00 0.00 0.00 81 1012.2
20260505032504 61 169 1.0 8.0 0.00 0.00 0.00 81 1012.3
20260505032004 61 219 0.0 6.0 0.00 0.00 0.00 81 1012.2
20260505031504 61 222 0.0 6.0 0.00 0.00 0.00 81 1012.2
20260505031005 61 229 1.0 6.0 0.00 0.00 0.00 81 1012.1
20260505030504 61 218 0.0 6.0 0.00 0.00 0.00 81 1012.1
20260505025505 61 217 1.0 3.0 0.00 0.00 0.00 81 1012.3
20260505025004 61 210 0.0 3.0 0.00 0.00 0.00 80 1012.3
20260505024503 61 212 1.0 3.0 0.00 0.00 0.00 80 1012.4
20260505024005 61 176 0.0 3.0 0.00 0.00 0.00 80 1012.3
20260505023504 61 164 1.0 3.0 0.00 0.00 0.00 80 1012.3
20260505023004 61 176 0.0 3.0 0.00 0.00 0.00 79 1012.3
20260505022505 61 169 0.0 3.0 0.00 0.00 0.00 79 1012.4
20260505022004 61 174 0.0 5.0 0.00 0.00 0.00 79 1012.4
20260505021004 61 170 0.0 6.0 0.00 0.00 0.00 78 1012.3
20260505020504 61 208 2.0 6.0 0.00 0.00 0.00 78 1012.4
20260505015504 62 206 0.0 3.0 0.00 0.00 0.00 77 1012.4
20260505015004 62 193 1.0 2.0 0.00 0.00 0.00 76 1012.4
20260505014504 62 184 1.0 5.0 0.00 0.00 0.00 75 1012.3
20260505013504 62 186 1.0 6.0 0.00 0.00 0.00 74 1012.3
20260505013004 62 195 1.0 5.0 0.00 0.00 0.00 74 1012.3
20260505012504 62 207 1.0 5.0 0.00 0.00 0.00 73 1012.3
20260505012004 62 174 1.0 5.0 0.00 0.00 0.00 73 1012.2
20260505011004 63 189 1.0 3.0 0.00 0.00 0.00 71 1012.2
20260505010504 63 218 1.0 3.0 0.00 0.00 0.00 71 1012.1
20260505010004 63 196 1.0 3.0 0.00 0.00 0.00 70 1012.1
20260505005503 63 241 1.0 5.0 0.00 0.00 0.00 69 1012.1
20260505004504 63 175 1.0 3.0 0.00 0.00 0.00 68 1012.1
20260505004003 64 198 1.0 3.0 0.00 0.00 0.00 67 1012.1
20260505003504 64 155 0.0 3.0 0.00 0.00 0.00 66 1012.0
20260505003004 64 209 1.0 6.0 0.00 0.00 0.00 65 1012.0
20260505002504 65 174 1.0 6.0 0.00 0.00 0.00 65 1012.0
20260505001504 65 265 1.0 5.0 0.00 0.00 0.00 65 1012.0
20260505001004 65 191 1.0 5.0 0.00 0.00 0.00 64 1012.0
20260505000504 66 212 1.0 7.0 0.00 0.00 0.00 63 1011.9
20260504235504 66 181 1.0 7.0 0.00 0.00 0.00 62 1011.8
20260504235004 67 202 1.0 5.0 0.00 0.00 0.00 61 1011.7
20260504234504 67 180 0.0 5.0 0.00 0.00 0.00 60 1011.7
20260504234004 67 188 2.0 5.0 0.00 0.00 0.00 60 1011.5
20260504233504 68 181 0.0 5.0 0.00 0.00 0.00 60 1011.6
20260504232505 68 208 2.0 6.0 0.00 0.00 0.00 60 1011.6
20260504232004 69 188 2.0 6.0 0.00 0.00 0.00 60 1011.4
20260504231503 69 187 1.0 7.0 0.00 0.00 0.00 59 1011.5
20260504231004 69 176 2.0 10.0 0.00 0.00 0.00 59 1011.5
20260504230503 70 196 2.0 10.0 0.00 0.00 0.00 58 1011.5
20260504230004 70 167 3.0 10.0 0.00 0.00 0.00 57 1011.4
20260504225505 71 198 1.0 7.0 0.00 0.00 0.00 54 1011.4
20260504225004 72 172 2.0 10.0 0.00 0.00 0.00 50 1011.5
20260504224504 72 179 3.0 10.0 0.00 0.00 0.00 40 1011.4
20260504224004 72 238 2.0 7.0 0.00 0.00 0.00 40 1011.4
20260504223504 72 164 3.0 6.0 0.00 0.00 0.00 40 1011.4
20260504223005 72 179 1.0 7.0 0.00 0.00 0.00 40 1011.4
20260504222505 73 80 2.0 7.0 0.00 0.00 0.00 40 1011.4
20260504222004 73 148 2.0 7.0 0.00 0.00 0.00 40 1011.4
20260504221504 73 229 2.0 12.0 0.00 0.00 0.00 39 1011.5
20260504221004 74 124 2.0 12.0 0.00 0.00 0.00 39 1011.4
20260504220504 74 188 1.0 8.0 0.00 0.00 0.00 39 1011.4
20260504220003 75 163 2.0 8.0 0.00 0.00 0.00 39 1011.4
20260504215503 75 152 1.0 8.0 0.00 0.00 0.00 38 1011.5
20260504215005 75 203 2.0 8.0 0.00 0.00 0.00 37 1011.5
20260504214504 75 238 2.0 8.0 0.00 0.00 0.00 37 1011.6
20260504213504 75 103 1.0 9.0 0.00 0.00 0.00 37 1011.5
20260504213004 75 212 2.0 9.0 0.00 0.00 0.00 37 1011.6
20260504212504 75 177 2.0 8.0 0.00 0.00 0.00 37 1011.6
20260504211504 75 202 3.0 8.0 0.00 0.00 0.00 37 1011.6
20260504211004 75 280 1.0 7.0 0.00 0.00 0.00 37 1011.4
20260504210504 75 190 1.0 8.0 0.00 0.00 0.00 36 1011.5
20260504210004 75 235 2.0 8.0 0.00 0.00 0.00 36 1011.5
20260504205504 75 330 2.0 17.0 0.00 0.00 0.00 36 1011.5
20260504205004 75 205 5.0 17.0 0.00 0.00 0.00 36 1011.7
20260504204503 75 157 2.0 9.0 0.00 0.00 0.00 36 1011.6
20260504204005 75 183 3.0 12.0 0.00 0.00 0.00 36 1011.7
20260504203504 75 132 3.0 12.0 0.00 0.00 0.00 36 1011.6
20260504203004 76 224 3.0 8.0 0.00 0.00 0.00 36 1011.7
20260504202504 75 244 2.0 12.0 0.00 0.00 0.00 36 1011.8
20260504202005 75 247 2.0 12.0 0.00 0.00 0.00 36 1011.8
20260504201504 75 194 3.0 10.0 0.00 0.00 0.00 37 1011.8
20260504201004 75 226 3.0 10.0 0.00 0.00 0.00 37 1011.8
20260504200504 75 53 1.0 8.0 0.00 0.00 0.00 37 1011.8
20260504200003 75 205 2.0 8.0 0.00 0.00 0.00 37 1011.8
20260504195504 75 2 2.0 6.0 0.00 0.00 0.00 37 1011.9
20260504195004 76 226 3.0 9.0 0.00 0.00 0.00 36 1011.9
20260504194504 75 205 5.0 9.0 0.00 0.00 0.00 37 1011.9
20260504194004 75 199 2.0 9.0 0.00 0.00 0.00 36 1012.0
20260504193504 76 183 3.0 7.0 0.00 0.00 0.00 36 1012.1
20260504193004 76 173 2.0 7.0 0.00 0.00 0.00 37 1012.1
20260504192504 76 112 1.0 8.0 0.00 0.00 0.00 37 1012.2
20260504192004 75 98 2.0 8.0 0.00 0.00 0.00 37 1012.2
20260504191504 76 136 1.0 9.0 0.00 0.00 0.00 36 1012.2
20260504191004 75 104 1.0 9.0 0.00 0.00 0.00 36 1012.3
20260504190504 75 146 3.0 9.0 0.00 0.00 0.00 36 1012.4
20260504185504 75 170 4.0 12.0 0.00 0.00 0.00 36 1012.6
20260504185005 75 168 3.0 12.0 0.00 0.00 0.00 36 1012.6
20260504184505 75 282 2.0 12.0 0.00 0.00 0.00 37 1012.5
20260504184005 75 142 2.0 6.0 0.00 0.00 0.00 35 1012.6
20260504183504 75 275 1.0 7.0 0.00 0.00 0.00 37 1012.6
20260504183004 75 254 2.0 8.0 0.00 0.00 0.00 37 1012.7
20260504182504 74 264 1.0 8.0 0.00 0.00 0.00 37 1012.8
20260504182004 74 176 3.0 8.0 0.00 0.00 0.00 36 1012.9
20260504181004 74 161 3.0 8.0 0.00 0.00 0.00 36 1013.1
20260504180503 74 343 2.0 8.0 0.00 0.00 0.00 37 1013.0
20260504175505 74 163 2.0 8.0 0.00 0.00 0.00 37 1013.1
20260504175005 74 211 3.0 8.0 0.00 0.00 0.00 36 1013.1
20260504174504 74 120 2.0 12.0 0.00 0.00 0.00 37 1013.1
20260504174003 74 196 5.0 12.0 0.00 0.00 0.00 36 1013.1
20260504173504 74 118 2.0 12.0 0.00 0.00 0.00 36 1013.2
20260504173005 74 188 3.0 12.0 0.00 0.00 0.00 35 1013.3
20260504172504 74 181 3.0 10.0 0.00 0.00 0.00 36 1013.3
20260504172004 74 21 3.0 9.0 0.00 0.00 0.00 40 1013.4
20260504171504 73 129 2.0 9.0 0.00 0.00 0.00 37 1013.5
20260504171005 73 116 2.0 9.0 0.00 0.00 0.00 37 1013.6
20260504151004 70 221 2.0 7.0 0.00 0.00 0.00 50 1014.4
20260504150504 69 221 1.0 6.0 0.00 0.00 0.00 49 1014.3
20260504141005 66 258 3.0 9.0 0.00 0.00 0.00 58 1014.8
20260504140504 66 247 2.0 7.0 0.00 0.00 0.00 58 1014.9
20260504130503 62 269 2.0 3.0 0.00 0.00 0.00 68 1015.6
20260504110504 51 224 0.0 1.0 0.00 0.00 0.00 85 1016.6
20260504100504 51 255 0.0 1.0 0.00 0.00 0.00 84 1016.4
20260504082004 49 180 1.0 5.0 0.00 0.00 0.00 83 1016.8
20260504081503 49 145 1.0 5.0 0.00 0.00 0.00 83 1016.8
20260504081004 49 171 0.0 6.0 0.00 0.00 0.00 83 1016.8
20260504080504 49 239 1.0 6.0 0.00 0.00 0.00 83 1016.8